Time,TemperatureF,DewpointF,PressureIn,WindDirection,WindDirectionDegrees,WindSpeedMPH,WindSpeedGustMPH,Humidity,HourlyPrecipIn,Conditions,Clouds,dailyrainin,SoftwareType,DateUTC
2013-08-29 00:09:00,73.8,69.3,29.83,NNE,22,0.0,-999.0,86,-99.99,,,0.00,Acu-Link.com,2013-08-29 04:09:00,
2013-08-29 00:24:00,73.2,69.1,29.83,NE,45,0.0,-999.0,87,-99.99,,,0.00,Acu-Link.com,2013-08-29 04:24:00,
2013-08-29 00:39:00,72.7,68.6,29.83,NE,45,0.0,-999.0,87,-99.99,,,0.00,Acu-Link.com,2013-08-29 04:39:00,
2013-08-29 00:54:00,72.5,68.4,29.83,NE,45,0.0,-999.0,87,-99.99,,,0.00,Acu-Link.com,2013-08-29 04:54:00,
2013-08-29 01:09:00,72.1,68.0,29.82,NE,45,0.0,-999.0,87,-99.99,,,0.00,Acu-Link.com,2013-08-29 05:09:00,
2013-08-29 01:24:00,71.8,68.0,29.82,ESE,112,0.0,-999.0,88,-99.99,,,0.00,Acu-Link.com,2013-08-29 05:24:00,
2013-08-29 01:39:00,71.6,67.9,29.82,SSE,157,0.0,-999.0,88,-99.99,,,0.00,Acu-Link.com,2013-08-29 05:39:00,
2013-08-29 01:54:00,71.4,67.7,29.82,SSE,157,0.0,-999.0,88,-99.99,,,0.00,Acu-Link.com,2013-08-29 05:54:00,
2013-08-29 02:09:00,71.1,67.4,29.83,SSE,157,0.0,-999.0,88,-99.99,,,0.00,Acu-Link.com,2013-08-29 06:09:00,
2013-08-29 02:25:00,70.9,67.2,29.82,West,270,0.0,-999.0,88,-99.99,,,0.00,Acu-Link.com,2013-08-29 06:25:00,
2013-08-29 02:40:00,70.7,67.0,29.82,NE,45,0.0,-999.0,88,-99.99,,,0.00,Acu-Link.com,2013-08-29 06:40:00,
2013-08-29 02:55:00,70.7,67.0,29.82,NNW,337,0.0,-999.0,88,-99.99,,,0.00,Acu-Link.com,2013-08-29 06:55:00,
2013-08-29 03:10:00,70.5,66.8,29.82,NNW,337,0.0,-999.0,88,-99.99,,,0.00,Acu-Link.com,2013-08-29 07:10:00,
2013-08-29 03:25:00,70.3,66.6,29.81,NNW,337,0.0,-999.0,88,-99.99,,,0.00,Acu-Link.com,2013-08-29 07:25:00,
2013-08-29 03:40:00,70.2,66.5,29.81,NNW,337,0.0,-999.0,88,-99.99,,,0.00,Acu-Link.com,2013-08-29 07:40:00,
2013-08-29 03:55:00,70.2,66.5,29.81,NNW,337,0.0,-999.0,88,-99.99,,,0.00,Acu-Link.com,2013-08-29 07:55:00,
2013-08-29 04:10:00,70.0,66.3,29.81,NNW,337,0.0,-999.0,88,-99.99,,,0.00,Acu-Link.com,2013-08-29 08:10:00,
2013-08-29 04:25:00,70.0,66.3,29.81,NNW,337,0.0,-999.0,88,-99.99,,,0.00,Acu-Link.com,2013-08-29 08:25:00,
2013-08-29 04:41:00,69.8,66.1,29.81,NNW,337,0.0,-999.0,88,-99.99,,,0.00,Acu-Link.com,2013-08-29 08:41:00,
2013-08-29 04:56:00,69.8,66.1,29.81,NNW,337,0.0,-999.0,88,-99.99,,,0.00,Acu-Link.com,2013-08-29 08:56:00,
2013-08-29 05:11:00,69.6,65.9,29.81,NNW,337,0.0,-999.0,88,-99.99,,,0.00,Acu-Link.com,2013-08-29 09:11:00,
2013-08-29 05:26:00,69.8,66.1,29.81,NNW,337,0.0,-999.0,88,-99.99,,,0.00,Acu-Link.com,2013-08-29 09:26:00,
2013-08-29 05:41:00,69.3,65.6,29.81,SSE,157,0.0,-999.0,88,-99.99,,,0.00,Acu-Link.com,2013-08-29 09:41:00,
2013-08-29 05:56:00,69.3,65.6,29.81,WNW,292,0.0,-999.0,88,-99.99,,,0.00,Acu-Link.com,2013-08-29 09:56:00,
2013-08-29 06:11:00,69.3,65.6,29.81,WNW,292,0.0,-999.0,88,-99.99,,,0.00,Acu-Link.com,2013-08-29 10:11:00,
2013-08-29 06:26:00,69.1,65.4,29.80,West,270,0.0,-999.0,88,-99.99,,,0.00,Acu-Link.com,2013-08-29 10:26:00,
2013-08-29 06:41:00,68.9,65.2,29.81,West,270,0.0,-999.0,88,-99.99,,,0.00,Acu-Link.com,2013-08-29 10:41:00,
2013-08-29 06:56:00,68.9,65.2,29.82,West,270,0.0,-999.0,88,-99.99,,,0.00,Acu-Link.com,2013-08-29 10:56:00,
2013-08-29 07:12:00,68.9,65.2,29.83,West,270,0.0,-999.0,88,-99.99,,,0.00,Acu-Link.com,2013-08-29 11:12:00,
2013-08-29 07:27:00,69.1,65.4,29.83,West,270,0.0,-999.0,88,-99.99,,,0.00,Acu-Link.com,2013-08-29 11:27:00,
2013-08-29 07:42:00,69.3,65.6,29.83,East,90,0.0,-999.0,88,-99.99,,,0.00,Acu-Link.com,2013-08-29 11:42:00,
2013-08-29 07:57:00,70.0,66.3,29.84,East,90,0.0,-999.0,88,-99.99,,,0.00,Acu-Link.com,2013-08-29 11:57:00,
2013-08-29 08:12:00,70.7,67.0,29.85,East,90,0.0,-999.0,88,-99.99,,,0.00,Acu-Link.com,2013-08-29 12:12:00,
2013-08-29 08:27:00,71.6,67.9,29.85,East,90,0.0,-999.0,88,-99.99,,,0.00,Acu-Link.com,2013-08-29 12:27:00,
2013-08-29 08:42:00,72.5,68.7,29.85,SSW,202,0.0,-999.0,88,-99.99,,,0.00,Acu-Link.com,2013-08-29 12:42:00,
2013-08-29 08:57:00,73.4,69.6,29.85,ESE,112,0.0,-999.0,88,-99.99,,,0.00,Acu-Link.com,2013-08-29 12:57:00,
2013-08-29 09:12:00,74.5,73.3,29.85,West,270,0.0,-999.0,96,-99.99,,,0.00,Acu-Link.com,2013-08-29 13:12:00,
2013-08-29 09:28:00,75.9,72.1,29.84,ESE,112,0.0,-999.0,88,-99.99,,,0.00,Acu-Link.com,2013-08-29 13:28:00,
2013-08-29 09:43:00,77.2,73.0,29.85,West,270,0.0,-999.0,87,-99.99,,,0.00,Acu-Link.com,2013-08-29 13:43:00,
2013-08-29 09:58:00,78.6,73.3,29.85,ESE,112,0.0,-999.0,84,-99.99,,,0.00,Acu-Link.com,2013-08-29 13:58:00,
2013-08-29 10:13:00,80.4,74.4,29.85,SSE,157,0.0,-999.0,82,-99.99,,,0.00,Acu-Link.com,2013-08-29 14:13:00,
2013-08-29 10:28:00,82.2,73.5,29.85,WNW,292,1.7,-999.0,75,-99.99,,,0.00,Acu-Link.com,2013-08-29 14:28:00,
2013-08-29 10:43:00,84.9,74.0,29.85,WSW,247,2.2,-999.0,70,-99.99,,,0.00,Acu-Link.com,2013-08-29 14:43:00,
2013-08-29 10:59:00,86.0,73.3,29.85,ESE,112,1.7,-999.0,66,-99.99,,,0.00,Acu-Link.com,2013-08-29 14:59:00,
2013-08-29 11:14:00,87.6,72.0,29.84,NW,315,1.7,-999.0,60,-99.99,,,0.00,Acu-Link.com,2013-08-29 15:14:00,
2013-08-29 11:29:00,88.7,71.0,29.84,SSW,202,0.0,-999.0,56,-99.99,,,0.00,Acu-Link.com,2013-08-29 15:29:00,
2013-08-29 11:44:00,89.4,72.6,29.84,WNW,292,2.2,-999.0,58,-99.99,,,0.00,Acu-Link.com,2013-08-29 15:44:00,
2013-08-29 11:59:00,91.6,72.0,29.83,SW,225,2.7,-999.0,53,-99.99,,,0.00,Acu-Link.com,2013-08-29 15:59:00,
2013-08-29 12:14:00,90.7,74.4,29.83,ESE,112,1.1,-999.0,59,-99.99,,,0.00,Acu-Link.com,2013-08-29 16:14:00,
2013-08-29 12:29:00,90.7,73.3,29.82,ESE,112,1.7,-999.0,57,-99.99,,,0.00,Acu-Link.com,2013-08-29 16:29:00,
2013-08-29 12:44:00,93.4,71.3,29.82,NW,315,1.7,-999.0,49,-99.99,,,0.00,Acu-Link.com,2013-08-29 16:44:00,
2013-08-29 12:59:00,93.0,71.6,29.82,NE,45,1.7,-999.0,50,-99.99,,,0.00,Acu-Link.com,2013-08-29 16:59:00,
2013-08-29 13:15:00,94.3,70.9,29.82,West,270,1.7,-999.0,47,-99.99,,,0.00,Acu-Link.com,2013-08-29 17:15:00,
2013-08-29 13:30:00,93.2,71.7,29.82,East,90,0.0,-999.0,50,-99.99,,,0.00,Acu-Link.com,2013-08-29 17:30:00,
2013-08-29 13:45:00,94.1,73.2,29.81,East,90,0.0,-999.0,51,-99.99,,,0.00,Acu-Link.com,2013-08-29 17:45:00,
2013-08-29 14:00:00,92.8,73.1,29.81,West,270,1.7,-999.0,53,-99.99,,,0.00,Acu-Link.com,2013-08-29 18:00:00,
2013-08-29 14:15:00,95.2,71.1,29.81,West,270,1.7,-999.0,46,-99.99,,,0.00,Acu-Link.com,2013-08-29 18:15:00,
2013-08-29 14:30:00,95.0,70.9,29.80,ENE,67,1.1,-999.0,46,-99.99,,,0.00,Acu-Link.com,2013-08-29 18:30:00,
2013-08-29 14:45:00,95.2,69.1,29.80,WSW,247,0.0,-999.0,43,-99.99,,,0.00,Acu-Link.com,2013-08-29 18:45:00,
2013-08-29 15:00:00,96.4,70.9,29.79,South,180,0.0,-999.0,44,-99.99,,,0.00,Acu-Link.com,2013-08-29 19:00:00,
2013-08-29 15:15:00,92.5,71.7,29.80,East,90,0.0,-999.0,51,-99.99,,,0.00,Acu-Link.com,2013-08-29 19:15:00,
2013-08-29 15:30:00,93.0,70.4,29.79,South,180,0.0,-999.0,48,-99.99,,,0.00,Acu-Link.com,2013-08-29 19:30:00,
2013-08-29 15:46:00,97.0,67.9,29.79,SSW,202,0.0,-999.0,39,-99.99,,,0.00,Acu-Link.com,2013-08-29 19:46:00,
2013-08-29 16:01:00,96.4,68.8,29.78,NE,45,0.0,-999.0,41,-99.99,,,0.00,Acu-Link.com,2013-08-29 20:01:00,
2013-08-29 16:16:00,95.0,70.3,29.77,East,90,0.0,-999.0,45,-99.99,,,0.00,Acu-Link.com,2013-08-29 20:16:00,
2013-08-29 16:31:00,95.2,70.5,29.78,South,180,0.0,-999.0,45,-99.99,,,0.00,Acu-Link.com,2013-08-29 20:31:00,
2013-08-29 16:46:00,94.3,72.2,29.78,NE,45,0.0,-999.0,49,-99.99,,,0.00,Acu-Link.com,2013-08-29 20:46:00,
2013-08-29 17:01:00,93.0,71.0,29.78,West,270,1.1,-999.0,49,-99.99,,,0.00,Acu-Link.com,2013-08-29 21:01:00,
2013-08-29 17:16:00,92.5,73.4,29.78,SW,225,1.7,-999.0,54,-99.99,,,0.00,Acu-Link.com,2013-08-29 21:16:00,
2013-08-29 17:31:00,90.9,72.5,29.78,West,270,0.0,-999.0,55,-99.99,,,0.00,Acu-Link.com,2013-08-29 21:31:00,
2013-08-29 17:46:00,89.4,72.1,29.78,West,270,0.0,-999.0,57,-99.99,,,0.00,Acu-Link.com,2013-08-29 21:46:00,
2013-08-29 18:02:00,88.7,74.0,29.78,West,270,0.0,-999.0,62,-99.99,,,0.00,Acu-Link.com,2013-08-29 22:02:00,
2013-08-29 18:17:00,88.2,73.5,29.78,West,270,0.0,-999.0,62,-99.99,,,0.00,Acu-Link.com,2013-08-29 22:17:00,
2013-08-29 18:32:00,87.4,73.2,29.78,West,270,0.0,-999.0,63,-99.99,,,0.00,Acu-Link.com,2013-08-29 22:32:00,
2013-08-29 18:47:00,86.9,72.3,29.77,West,270,0.0,-999.0,62,-99.99,,,0.00,Acu-Link.com,2013-08-29 22:47:00,
2013-08-29 19:02:00,86.0,72.8,29.77,West,270,0.0,-999.0,65,-99.99,,,0.00,Acu-Link.com,2013-08-29 23:02:00,
2013-08-29 19:17:00,84.2,72.0,29.77,West,270,0.0,-999.0,67,-99.99,,,0.00,Acu-Link.com,2013-08-29 23:17:00,
2013-08-29 19:32:00,83.3,71.6,29.79,West,270,0.0,-999.0,68,-99.99,,,0.00,Acu-Link.com,2013-08-29 23:32:00,
2013-08-29 19:47:00,82.2,72.3,29.79,West,270,0.0,-999.0,72,-99.99,,,0.00,Acu-Link.com,2013-08-29 23:47:00,
2013-08-29 20:02:00,81.7,74.2,29.80,West,270,0.0,-999.0,78,-99.99,,,0.00,Acu-Link.com,2013-08-30 00:02:00,
2013-08-29 20:18:00,80.8,74.0,29.80,West,270,0.0,-999.0,80,-99.99,,,0.00,Acu-Link.com,2013-08-30 00:18:00,
2013-08-29 20:33:00,80.2,74.6,29.81,West,270,0.0,-999.0,83,-99.99,,,0.00,Acu-Link.com,2013-08-30 00:33:00,
2013-08-29 20:48:00,79.5,73.9,29.81,West,270,0.0,-999.0,83,-99.99,,,0.00,Acu-Link.com,2013-08-30 00:48:00,
2013-08-29 21:03:00,79.2,73.6,29.82,West,270,0.0,-999.0,83,-99.99,,,0.00,Acu-Link.com,2013-08-30 01:03:00,
2013-08-29 21:18:00,78.8,74.2,29.82,West,270,0.0,-999.0,86,-99.99,,,0.00,Acu-Link.com,2013-08-30 01:18:00,
2013-08-29 21:33:00,78.8,73.9,29.83,West,270,0.0,-999.0,85,-99.99,,,0.00,Acu-Link.com,2013-08-30 01:33:00,
2013-08-29 21:48:00,79.0,73.4,29.83,SSE,157,0.0,-999.0,83,-99.99,,,0.00,Acu-Link.com,2013-08-30 01:48:00,
2013-08-29 22:03:00,79.3,72.9,29.84,SW,225,1.1,-999.0,81,-99.99,,,0.00,Acu-Link.com,2013-08-30 02:03:00,
2013-08-29 22:18:00,79.3,72.6,29.83,ESE,112,0.0,-999.0,80,-99.99,,,0.00,Acu-Link.com,2013-08-30 02:18:00,
2013-08-29 22:34:00,79.2,72.9,29.84,SE,135,0.0,-999.0,81,-99.99,,,0.00,Acu-Link.com,2013-08-30 02:34:00,
2013-08-29 22:49:00,79.0,73.0,29.85,SE,135,0.0,-999.0,82,-99.99,,,0.00,Acu-Link.com,2013-08-30 02:49:00,
2013-08-29 23:04:00,78.6,72.6,29.84,SE,135,0.0,-999.0,82,-99.99,,,0.00,Acu-Link.com,2013-08-30 03:04:00,
2013-08-29 23:19:00,78.4,72.4,29.85,SSE,157,0.0,-999.0,82,-99.99,,,0.00,Acu-Link.com,2013-08-30 03:19:00,
2013-08-29 23:34:00,78.1,72.5,29.84,ESE,112,0.0,-999.0,83,-99.99,,,0.00,Acu-Link.com,2013-08-30 03:34:00,
2013-08-29 23:49:00,77.5,71.9,29.85,SE,135,0.0,-999.0,83,-99.99,,,0.00,Acu-Link.com,2013-08-30 03:49:00,